Location: Santa Clara
(37.3540°N, 121.9540°W)
Time: 15:03:48
(UTC-08:00)

ISS - Visible Passes

Search period start: 20 January 2022 00:00
Search period end: 30 January 2022 00:00
Orbit: 413 x 422 km, 51.6° (Epoch: 20 January)

Date Brightness Start Highest point End Pass type
(mag) Time Alt. Az. Time Alt. Az. Time Alt. Az.
20 Jan -2.0 18:31:48 10° W 18:34:36 25° NNW 18:36:31 15° NNE visible
21 Jan -2.7 17:43:22 10° WSW 17:46:31 39° NW 17:49:40 10° NE visible
22 Jan -1.2 18:34:04 10° NW 18:35:45 13° NNW 18:37:26 10° N visible
